[[{"header":{"parameterUnit":"m.s-1","parameterCategory":1,"la1":30.2991,"la2":30.254,"lo1":-89.0895,"lo2":-89.0444,"dy":0.0017,"dx":0.0017,"nx":28,"ny":28,"refTime":"2023-09-12T03:00:00:Z","depth":0,"parameterNumber":2,"parameterNumberName":"U-component_of_WINDS"},"data":[0,0,0,0,0,0,0,0,0,0,0,0,0,0,0,0,0,0,0,0,0,0,0,0,0,0,0,0,0,0,0,0,0,0,0,0,0,0,0,0,0,0,0,0,0,0,0,0,0,0,0,0,0,0,0,0,0,0,-0.5268,-0.5268,0,-0.531,-0.531,-0.5311,-0.5322,-0.5321,-0.5321,-0.5321,-0.5365,-0.5367,-0.5368,0,0,0,0,0,0,0,0,0,0,0,0,0,-0.52,-0.5201,-0.5268,-0.5268,-0.5269,-0.531,-0.531,-0.5311,-0.5322,-0.5321,-0.5321,-0.5321,-0.5365,-0.5367,-0.5368,0,0,0,0,0,0,0,0,0,0,0,0,0,-0.5234,-0.5202,-0.5268,-0.5279,-0.5281,-0.531,-0.531,-0.5311,-0.5322,-0.5321,-0.5321,-0.5321,-0.5364,-0.5366,-0.5369,-0.539,0,0,-0.5375,-0.5376,0,0,0,0,0,0,0,0,-0.5232,-0.5237,-0.5277,-0.5278,-0.528,-0.531,-0.5303,-0.5337,-0.5322,-0.5306,-0.5321,-0.532,-0.5347,-0.5351,-0.536,-0.5392,-0.5394,-0.5375,-0.5377,-0.5378,-0.5378,0,0,0,0,0,0,0,-0.523,-0.5235,-0.5285,-0.5278,-0.528,-0.5283,-0.5288,-0.5309,-0.5329,-0.5307,-0.5308,-0.5313,-0.5348,-0.5358,-0.5361,-0.5394,-0.5375,-0.5377,-0.5379,-0.5379,-0.5447,-0.5448,0,0,0,0,0,0,-0.5225,-0.5233,-0.5283,-0.5286,-0.5255,-0.5285,-0.529,-0.5301,-0.5328,-0.5332,-0.5313,-0.5313,-0.5354,-0.5358,-0.5362,-0.539,-0.5378,-0.538,-0.5381,-0.5447,-0.5448,-0.5448,0,0,0,0,0,0,-0.5224,-0.523,-0.5282,-0.526,-0.5267,-0.5286,-0.5299,-0.5302,-0.5311,-0.5333,-0.5336,-0.5319,-0.5354,-0.5359,-0.5383,-0.5392,-0.5381,-0.5382,-0.5446,-0.5447,-0.5448,-0.5445,0,0,0,0,0,0,-0.5222,-0.5229,-0.5237,-0.526,-0.5268,-0.5301,-0.5299,-0.5303,-0.5315,-0.5315,-0.5339,-0.5343,-0.5354,-0.538,-0.5385,-0.5394,-0.5384,-0.5446,-0.5447,-0.5448,-0.5444,-0.5445,-0.5446,0,0,0,0,0,-0.5219,-0.5234,-0.5237,-0.5243,-0.5277,-0.5301,-0.5306,-0.5318,-0.5315,-0.5324,-0.5338,-0.5342,-0.539,-0.5382,-0.5388,-0.5398,-0.5445,-0.5446,-0.5448,-0.5444,-0.5445,-0.5446,0,0,0,0,0,0,-0.5212,-0.5237,-0.5241,-0.5263,-0.528,-0.5303,-0.5314,-0.5319,-0.5337,-0.5337,-0.5351,-0.5357,-0.538,-0.5391,-0.5382,-0.5421,-0.5418,-0.542,-0.5412,-0.5414,-0.5415,-0.5412,-0.5386,0,0,0,0,0,-0.5213,-0.5229,-0.5251,-0.5269,-0.5277,-0.5294,-0.5305,-0.5312,-0.5331,-0.5338,-0.5353,-0.5371,-0.5391,-0.5403,-0.5421,-0.5446,-0.5452,-0.5456,-0.5457,-0.5457,-0.546,-0.5474,-0.5477,-0.5452,-0.5452,-0.5452,0,0,-0.5215,-0.5231,-0.5241,-0.5268,-0.5282,-0.5299,-0.53,-0.5318,-0.5332,-0.5341,-0.5364,-0.5376,-0.5397,-0.5422,-0.5433,-0.5432,-0.5468,-0.5459,-0.5459,-0.5461,-0.5476,-0.5478,-0.548,-0.5453,-0.5453,-0.5453,0,0,-0.5229,-0.5242,-0.5259,-0.5273,-0.5293,-0.5305,-0.5309,-0.5331,-0.5339,-0.5363,-0.537,-0.5387,-0.5419,-0.5434,-0.5446,-0.5466,-0.5471,-0.5472,-0.5477,-0.5492,-0.5494,-0.5495,-0.5504,-0.5506,-0.5474,-0.5474,-0.5474,0,-0.5229,-0.5255,-0.5267,-0.5285,-0.5297,-0.5306,-0.5324,-0.5337,-0.5363,-0.5372,-0.537,-0.5411,-0.5426,-0.5454,-0.5459,-0.5468,-0.5474,-0.5469,-0.5492,-0.5494,-0.5496,-0.5504,-0.5507,-0.5474,-0.5474,-0.5474,-0.5474,0,-0.5255,-0.5273,-0.5285,-0.5309,-0.5323,-0.534,-0.5356,-0.5368,-0.5375,-0.5387,-0.5411,-0.5429,-0.5452,-0.546,-0.5466,-0.5489,-0.5488,-0.5489,-0.5486,-0.5498,-0.5506,-0.5509,-0.5474,-0.5474,-0.5474,-0.5474,0,0,-0.5265,-0.5296,-0.53,-0.5312,-0.5336,-0.535,-0.5369,-0.5391,-0.5402,-0.542,-0.5437,-0.5464,-0.5465,-0.5479,-0.5488,-0.55,-0.5516,-0.55,-0.5501,-0.5503,-0.5544,-0.5543,-0.5547,-0.5519,-0.552,-0.552,-0.5542,0,-0.5282,-0.5315,-0.5327,-0.5355,-0.5372,-0.5381,-0.5397,-0.5414,-0.5426,-0.5443,-0.5456,-0.5476,-0.5476,-0.5484,-0.5497,-0.5511,-0.5525,-0.551,-0.5536,-0.5537,-0.5531,-0.555,-0.555,-0.557,-0.5545,-0.5546,-0.5546,0,-0.5307,-0.5324,-0.5354,-0.5376,-0.5384,-0.5398,-0.542,-0.5436,-0.5456,-0.5463,-0.5479,-0.5487,-0.5508,-0.5503,-0.5533,-0.5523,-0.5535,-0.5544,-0.5545,-0.5548,-0.5543,-0.5555,-0.5576,-0.5579,-0.5551,-0.555,-0.555,0,-0.5312,-0.5343,-0.5365,-0.5375,-0.5401,-0.5411,-0.5423,-0.5442,-0.5455,-0.5474,-0.5483,-0.5504,-0.5516,-0.5533,-0.5547,-0.5543,-0.5577,-0.5573,-0.5584,-0.5584,-0.5592,-0.5591,-0.5615,-0.5598,-0.5598,-0.5598,-0.5598,0,-0.533,-0.5348,-0.5368,-0.5382,-0.5402,-0.5416,-0.5436,-0.5448,-0.5466,-0.5483,-0.5492,-0.5507,-0.5525,-0.5543,-0.5554,-0.5578,-0.5583,-0.5591,-0.5594,-0.559,-0.559,-0.5599,-0.5598,-0.5598,-0.5598,-0.5598,-0.5598,0,-0.534,-0.5354,-0.5379,-0.5402,-0.5408,-0.5422,-0.5442,-0.5456,-0.5468,-0.549,-0.5496,-0.5515,-0.5537,-0.5553,-0.5581,-0.5589,-0.5615,-0.5617,-0.5608,-0.5609,-0.562,-0.562,-0.5652,-0.5657,-0.5635,-0.5636,-0.5636,0,-0.5351,-0.5365,-0.539,-0.5401,-0.5413,-0.5431,-0.5444,-0.5458,-0.5472,-0.5496,-0.5507,-0.553,-0.5549,-0.5584,-0.5601,-0.5623,-0.5627,-0.5637,-0.563,-0.5627,-0.5628,-0.5628,-0.563,-0.5638,-0.5638,-0.5638,-0.5638,0,-0.537,-0.5376,-0.5394,-0.5415,-0.543,-0.5447,-0.5465,-0.5474,-0.5491,-0.5506,-0.5529,-0.5543,-0.5572,-0.5595,-0.5619,-0.5632,-0.5639,-0.564,-0.5644,-0.5641,-0.5636,-0.564,-0.5611,-0.564,-0.5639,-0.5639,-0.5639,-0.5639,-0.5381,-0.5395,-0.5414,-0.5434,-0.5448,-0.5465,-0.5479,-0.5493,-0.5512,-0.5536,-0.5544,-0.5567,-0.5588,-0.5621,-0.5634,-0.5653,-0.5653,-0.5658,-0.566,-0.5661,-0.5662,-0.5632,-0.5658,-0.5658,-0.5658,-0.5658,-0.5658,0,-0.5401,-0.5414,-0.5432,-0.5456,-0.5472,-0.5476,-0.5496,-0.5509,-0.553,-0.5548,-0.5566,-0.5593,-0.5615,-0.5634,-0.5658,-0.567,-0.5673,-0.5675,-0.5675,-0.5678,-0.566,-0.5655,-0.5672,-0.5672,-0.5672,-0.5672,-0.5672,-0.5672,-0.5414,-0.5436,-0.5445,-0.5475,-0.5488,-0.5511,-0.5522,-0.5538,-0.5552,-0.5581,-0.56,-0.5611,-0.5631,-0.5655,-0.5677,-0.5682,-0.569,-0.5692,-0.5698,-0.5681,-0.5679,-0.5678,-0.5673,-0.5693,-0.5693,-0.5714,-0.5714,-0.5715]},{"header":{"parameterUnit":"m.s-1","parameterCategory":1,"la1":30.2991,"la2":30.254,"lo1":-89.0895,"lo2":-89.0444,"dy":0.0017,"dx":0.0017,"nx":28,"ny":28,"refTime":"2023-09-12T03:00:00:Z","depth":0,"parameterNumber":3,"parameterNumberName":"V-component_of_WINDS"},"data":[0,0,0,0,0,0,0,0,0,0,0,0,0,0,0,0,0,0,0,0,0,0,0,0,0,0,0,0,0,0,0,0,0,0,0,0,0,0,0,0,0,0,0,0,0,0,0,0,0,0,0,0,0,0,0,0,0,0,3.8909,3.8909,0,3.8933,3.8934,3.8934,3.8884,3.8883,3.8881,3.888,3.8902,3.8905,3.8907,0,0,0,0,0,0,0,0,0,0,0,0,0,3.8815,3.8817,3.8909,3.8909,3.8909,3.8933,3.8934,3.8934,3.8885,3.8883,3.8881,3.8879,3.8902,3.8904,3.8907,0,0,0,0,0,0,0,0,0,0,0,0,0,3.8849,3.8817,3.8909,3.8888,3.8886,3.8933,3.8934,3.8934,3.8885,3.8883,3.888,3.8878,3.8901,3.8904,3.8907,3.8975,0,0,3.8917,3.8918,0,0,0,0,0,0,0,0,3.8847,3.8853,3.889,3.8889,3.8887,3.8903,3.8909,3.8948,3.8886,3.8885,3.888,3.8877,3.8905,3.8907,3.8917,3.8976,3.8977,3.8917,3.8919,3.892,3.8921,0,0,0,0,0,0,0,3.8845,3.8851,3.8918,3.8891,3.8889,3.8876,3.8878,3.8916,3.8908,3.8885,3.8882,3.8885,3.8903,3.8914,3.8917,3.8978,3.8917,3.892,3.8922,3.8923,3.9091,3.9093,0,0,0,0,0,0,3.8846,3.885,3.8918,3.8919,3.8861,3.8879,3.8882,3.8901,3.8908,3.8906,3.8888,3.8883,3.891,3.8914,3.8918,3.8996,3.892,3.8923,3.8925,3.9088,3.9091,3.9094,0,0,0,0,0,0,3.8844,3.8852,3.8917,3.8883,3.8891,3.8884,3.8905,3.8902,3.8913,3.8909,3.8907,3.89,3.8908,3.8913,3.8961,3.8996,3.8925,3.8928,3.9085,3.9089,3.9093,3.9153,0,0,0,0,0,0,3.8841,3.8852,3.8879,3.8884,3.8893,3.896,3.8907,3.8905,3.8919,3.8914,3.8921,3.892,3.8907,3.8956,3.8964,3.8999,3.893,3.9082,3.9087,3.9091,3.9148,3.9159,3.9168,0,0,0,0,0,3.8838,3.8895,3.888,3.8889,3.8926,3.8963,3.8967,3.8952,3.8922,3.8948,3.8945,3.892,3.8991,3.8962,3.897,3.9006,3.908,3.9086,3.9091,3.9144,3.9157,3.9168,0,0,0,0,0,0,3.8893,3.8895,3.8879,3.894,3.8951,3.8954,3.8986,3.8966,3.8986,3.898,3.8959,3.8961,3.9012,3.9014,3.8981,3.9071,3.903,3.9038,3.9068,3.908,3.909,3.9087,3.8933,0,0,0,0,0,3.8912,3.8943,3.8943,3.8996,3.9003,3.8994,3.9009,3.8996,3.9007,3.9012,3.9012,3.9023,3.9047,3.9064,3.9087,3.9149,3.9148,3.9178,3.9188,3.9196,3.9202,3.9232,3.9245,3.9113,3.9113,3.9113,0,0,3.8952,3.8957,3.8978,3.9007,3.9015,3.9045,3.8998,3.9033,3.9055,3.9017,3.9061,3.9062,3.9072,3.9127,3.915,3.913,3.9239,3.9203,3.921,3.9211,3.924,3.9252,3.9263,3.9117,3.9116,3.9116,0,0,3.9039,3.9048,3.9092,3.91,3.9112,3.9105,3.9116,3.9122,3.9121,3.9165,3.9136,3.9162,3.9205,3.9213,3.9223,3.9312,3.9288,3.932,3.9371,3.9401,3.9411,3.942,3.9449,3.946,3.9327,3.9327,3.9327,0,3.9087,3.9133,3.9117,3.9153,3.9165,3.9133,3.9176,3.9185,3.9203,3.9212,3.9189,3.9242,3.9247,3.9301,3.9323,3.9333,3.9342,3.9318,3.9411,3.942,3.9428,3.9456,3.9467,3.933,3.933,3.933,3.9329,0,3.9189,3.9221,3.9255,3.9274,3.929,3.933,3.9318,3.9337,3.9322,3.9318,3.9362,3.9367,3.9389,3.9401,3.9388,3.9453,3.944,3.9415,3.9373,3.9444,3.947,3.9481,3.9336,3.9334,3.9333,3.9332,0,0,3.9312,3.932,3.9332,3.9339,3.935,3.9373,3.9411,3.9432,3.9448,3.9462,3.949,3.9528,3.9504,3.9515,3.9502,3.9528,3.9595,3.9499,3.9499,3.9515,3.9665,3.9682,3.9695,3.958,3.9582,3.9584,3.9663,0,3.9396,3.9461,3.9446,3.9509,3.9537,3.9506,3.9538,3.9547,3.9543,3.9565,3.9561,3.9587,3.9555,3.9561,3.9586,3.9582,3.9625,3.9576,3.9605,3.9606,3.9601,3.9709,3.9728,3.9802,3.9673,3.9675,3.9676,0,3.9504,3.9521,3.9586,3.959,3.9601,3.963,3.9648,3.967,3.9679,3.9674,3.9686,3.9668,3.9703,3.9662,3.9709,3.9676,3.9687,3.9687,3.9689,3.969,3.9644,3.9709,3.9826,3.9836,3.9692,3.9691,3.969,0,3.9583,3.9623,3.9666,3.9674,3.968,3.97,3.9704,3.971,3.9724,3.9739,3.9747,3.9767,3.9777,3.9791,3.9778,3.975,3.9826,3.9785,3.9821,3.9821,3.9837,3.9836,3.9954,3.9848,3.9848,3.9848,3.9848,0,3.9677,3.9718,3.9702,3.9728,3.9772,3.9755,3.9798,3.9798,3.9804,3.9829,3.9804,3.9827,3.9809,3.9831,3.9821,3.9859,3.9865,3.9861,3.9857,3.9862,3.9862,3.9867,3.986,3.9851,3.985,3.985,3.9849,0,3.9773,3.9764,3.9809,3.981,3.9812,3.9844,3.9845,3.9868,3.9863,3.9895,3.9901,3.9892,3.9916,3.9905,3.993,3.9923,3.9972,3.9963,3.9969,3.9966,4.0002,3.9998,4.0126,4.0141,4.0028,4.0029,4.003,0,3.9832,3.9863,3.9867,3.9882,3.9887,3.9912,3.9925,3.9909,3.9924,3.9935,3.9957,3.9979,3.9996,4.0035,4.0031,4.0049,4.0039,4.0082,4.0041,4.0044,4.0036,4.0034,4.0035,4.009,4.0091,4.0092,4.0093,0,3.9939,3.9932,3.9953,3.9971,3.9987,4.0001,4.0013,4.0026,4.001,4.0028,4.0052,4.0065,4.009,4.0111,4.0127,4.013,4.0108,4.0106,4.0115,4.0119,4.012,4.0118,3.9989,4.0103,4.0102,4.0101,4.0101,4.01,4.0016,4.0041,4.0047,4.007,4.0077,4.0088,4.0109,4.0107,4.0127,4.0146,4.0135,4.0163,4.0169,4.0189,4.0194,4.0214,4.0197,4.021,4.0213,4.0216,4.022,4.0119,4.0217,4.0217,4.0217,4.0217,4.0216,0,4.0119,4.0121,4.0142,4.0159,4.0176,4.0156,4.0167,4.0182,4.0207,4.0215,4.0231,4.0258,4.0279,4.0275,4.0294,4.0311,4.0301,4.0316,4.0313,4.0313,4.0236,4.0225,4.0323,4.0323,4.0323,4.0323,4.0323,4.0323,4.0174,4.0213,4.0208,4.0249,4.0251,4.0278,4.0286,4.0295,4.0301,4.0332,4.0349,4.0347,4.035,4.0368,4.0385,4.0383,4.039,4.0408,4.0403,4.033,4.0319,4.0309,4.0299,4.041,4.041,4.0478,4.0478,4.0479]}]]